AAL811 KSAT-KCLT

Flight info

Callsign AAL811
Flight time 1h 53m
Altitude 41000
Route SNIDR2 MOLLR KH03G AEX WINAP STNGA BESTT JONZE5
Aircraft B788/H-L/1101

Departure

Time 2026-05-08 20:43
Airport San Antonio International Airport (KSAT)

Arrival

Time 2026-05-08 22:36
Airport Charlotte Douglas International Airport (KCLT)
Time Latitude Longitude Altitude Speed Heading
2026-05-08 20:36 29.52920 -98.47374 822 ft 0 kts 262°
2026-05-08 20:37 29.52920 -98.47375 822 ft 0 kts 262°
2026-05-08 20:37 29.52921 -98.47364 822 ft 2 kts 262°
2026-05-08 20:37 29.52924 -98.47343 822 ft 3 kts 262°
2026-05-08 20:38 29.52926 -98.47321 822 ft 2 kts 262°
2026-05-08 20:38 29.52927 -98.47321 822 ft 0 kts 262°
2026-05-08 20:38 29.52926 -98.47322 822 ft 2 kts 263°
2026-05-08 20:39 29.52958 -98.47371 822 ft 14 kts 339°
2026-05-08 20:39 29.53076 -98.47410 822 ft 21 kts 344°
2026-05-08 20:39 29.53224 -98.47465 822 ft 23 kts 330°
2026-05-08 20:39 29.53344 -98.47607 822 ft 27 kts 311°
2026-05-08 20:40 29.53476 -98.47781 822 ft 30 kts 311°
2026-05-08 20:40 29.53624 -98.47974 822 ft 33 kts 311°
2026-05-08 20:40 29.53782 -98.48176 822 ft 34 kts 312°
2026-05-08 20:40 29.53933 -98.48368 822 ft 31 kts 312°
2026-05-08 20:41 29.54070 -98.48542 822 ft 20 kts 311°
2026-05-08 20:41 29.54133 -98.48617 822 ft 9 kts 329°
2026-05-08 20:41 29.54201 -98.48594 822 ft 13 kts 44°
2026-05-08 20:41 29.54241 -98.48529 822 ft 9 kts 87°
2026-05-08 20:42 29.54202 -98.48457 822 ft 14 kts 130°
2026-05-08 20:42 29.54128 -98.48357 822 ft 20 kts 130°
2026-05-08 20:42 29.53806 -98.47935 822 ft 126 kts 131°
2026-05-08 20:42 29.53079 -98.46991 1381 ft 167 kts 131°
2026-05-08 20:43 29.52318 -98.45991 2740 ft 165 kts 130°
2026-05-08 20:43 29.51538 -98.44979 3726 ft 174 kts 130°
2026-05-08 20:43 29.50707 -98.43902 4409 ft 191 kts 129°
2026-05-08 20:43 29.50011 -98.42567 4531 ft 204 kts 113°
2026-05-08 20:44 29.50004 -98.40893 4419 ft 222 kts 84°
2026-05-08 20:44 29.50646 -98.39204 4635 ft 238 kts 69°
2026-05-08 20:44 29.51417 -98.37411 5141 ft 262 kts 68°
2026-05-08 20:44 29.52313 -98.35522 5995 ft 276 kts 64°
2026-05-08 20:45 29.53172 -98.33504 6929 ft 285 kts 68°
2026-05-08 20:45 29.53911 -98.31366 7942 ft 290 kts 71°
2026-05-08 20:45 29.54558 -98.29165 8999 ft 293 kts 74°
2026-05-08 20:45 29.55156 -98.26902 10049 ft 297 kts 75°
2026-05-08 20:46 29.55734 -98.24574 10837 ft 311 kts 76°
2026-05-08 20:46 29.56319 -98.22130 11375 ft 333 kts 76°
2026-05-08 20:46 29.56948 -98.19446 11934 ft 353 kts 76°
2026-05-08 20:46 29.57599 -98.16650 12486 ft 373 kts 76°
2026-05-08 20:47 29.58284 -98.13695 13006 ft 392 kts 76°
2026-05-08 20:47 29.59002 -98.10587 13489 ft 411 kts 77°
2026-05-08 20:47 29.59752 -98.07338 14027 ft 428 kts 77°
2026-05-08 20:47 29.60517 -98.04019 14681 ft 439 kts 77°
2026-05-08 20:48 29.61299 -98.00619 15383 ft 449 kts 76°
2026-05-08 20:48 29.62101 -97.97131 16173 ft 455 kts 76°
2026-05-08 20:48 29.62918 -97.93565 16957 ft 461 kts 75°
2026-05-08 20:48 29.63747 -97.89915 17213 ft 483 kts 76°
2026-05-08 20:49 29.64460 -97.86123 18114 ft 481 kts 81°
2026-05-08 20:49 29.64887 -97.82321 18948 ft 485 kts 84°
2026-05-08 20:49 29.65186 -97.78464 19630 ft 489 kts 86°
2026-05-08 20:49 29.65377 -97.74526 20253 ft 496 kts 88°
2026-05-08 20:50 29.65486 -97.70544 20862 ft 502 kts 90°
2026-05-08 20:50 29.65550 -97.66470 21252 ft 514 kts 91°
2026-05-08 20:50 29.65589 -97.62341 21864 ft 519 kts 91°
2026-05-08 20:50 29.65621 -97.58175 22370 ft 525 kts 92°
2026-05-08 20:51 29.65653 -97.53951 22987 ft 529 kts 92°
2026-05-08 20:51 29.65688 -97.49684 23524 ft 535 kts 92°
2026-05-08 20:51 29.65724 -97.45351 24147 ft 538 kts 92°
2026-05-08 20:51 29.65761 -97.41071 24587 ft 545 kts 92°
2026-05-08 20:52 29.65798 -97.36692 25027 ft 551 kts 92°
2026-05-08 20:52 29.65833 -97.32255 25531 ft 556 kts 92°
2026-05-08 20:52 29.65867 -97.27797 26047 ft 560 kts 92°
2026-05-08 20:52 29.65899 -97.23323 26545 ft 564 kts 93°
2026-05-08 20:53 29.65928 -97.18806 27166 ft 565 kts 92°
2026-05-08 20:53 29.65956 -97.14276 27856 ft 567 kts 92°
2026-05-08 20:53 29.65983 -97.09720 28231 ft 574 kts 92°
2026-05-08 20:53 29.66009 -97.05105 28672 ft 581 kts 92°
2026-05-08 20:54 29.66035 -97.00424 29154 ft 587 kts 93°
2026-05-08 20:54 29.66061 -96.95713 29706 ft 590 kts 93°
2026-05-08 20:54 29.66087 -96.91020 30299 ft 593 kts 93°
2026-05-08 20:54 29.66112 -96.86222 30910 ft 595 kts 93°
2026-05-08 20:55 29.66135 -96.81468 31498 ft 596 kts 93°
2026-05-08 20:55 29.66155 -96.76684 32085 ft 598 kts 93°
2026-05-08 20:55 29.66173 -96.71952 32665 ft 599 kts 94°
2026-05-08 20:55 29.66189 -96.67171 33271 ft 599 kts 94°
2026-05-08 20:56 29.66202 -96.62369 33845 ft 600 kts 94°
2026-05-08 20:56 29.66215 -96.57565 34409 ft 601 kts 94°
2026-05-08 20:56 29.66225 -96.52787 34966 ft 601 kts 94°
2026-05-08 20:56 29.66228 -96.47970 35585 ft 600 kts 94°
2026-05-08 20:57 29.66227 -96.43133 36058 ft 602 kts 94°
2026-05-08 20:57 29.66221 -96.38378 36558 ft 603 kts 94°
2026-05-08 20:57 29.66212 -96.33558 37068 ft 603 kts 94°
2026-05-08 20:57 29.66202 -96.28720 37554 ft 604 kts 94°
2026-05-08 20:58 29.66190 -96.23850 38023 ft 604 kts 94°
2026-05-08 20:58 29.66177 -96.19097 38599 ft 601 kts 95°
2026-05-08 20:58 29.66163 -96.14290 39020 ft 601 kts 95°
2026-05-08 20:58 29.66147 -96.09466 39502 ft 600 kts 95°
2026-05-08 20:59 29.66129 -96.04655 39870 ft 600 kts 95°
2026-05-08 20:59 29.66109 -95.99882 40283 ft 600 kts 95°
2026-05-08 20:59 29.66088 -95.95066 40667 ft 599 kts 95°
2026-05-08 20:59 29.66064 -95.90327 40847 ft 598 kts 95°
2026-05-08 21:00 29.66040 -95.85514 40991 ft 596 kts 95°
2026-05-08 21:00 29.65986 -95.76071 40975 ft 590 kts 95°
2026-05-08 21:01 29.65911 -95.66704 40975 ft 585 kts 95°
2026-05-08 21:01 29.65819 -95.57378 41012 ft 583 kts 95°
2026-05-08 21:02 29.65735 -95.48009 41030 ft 585 kts 95°
2026-05-08 21:02 29.65659 -95.38628 40993 ft 585 kts 95°
2026-05-08 21:03 29.66457 -95.29280 40986 ft 594 kts 78°
2026-05-08 21:03 29.67813 -95.24781 41000 ft 596 kts 67°
2026-05-08 21:03 29.69754 -95.20633 41017 ft 591 kts 56°
2026-05-08 21:03 29.72167 -95.16904 41048 ft 579 kts 49°
2026-05-08 21:04 29.74785 -95.13379 40983 ft 574 kts 46°
2026-05-08 21:04 29.79961 -95.06396 40989 ft 578 kts 47°
2026-05-08 21:05 29.85007 -94.99073 41026 ft 588 kts 49°
2026-05-08 21:05 29.89975 -94.91581 41005 ft 592 kts 50°
2026-05-08 21:06 29.94947 -94.84036 40998 ft 589 kts 50°
2026-05-08 21:06 29.99924 -94.76501 41004 ft 589 kts 50°
2026-05-08 21:07 30.04907 -94.68961 40999 ft 592 kts 50°
2026-05-08 21:07 30.09888 -94.61402 40979 ft 591 kts 50°
2026-05-08 21:08 30.14846 -94.53863 40981 ft 590 kts 50°
2026-05-08 21:08 30.19791 -94.46332 40999 ft 589 kts 50°
2026-05-08 21:09 30.24744 -94.38776 41002 ft 590 kts 50°
2026-05-08 21:09 30.29704 -94.31187 41005 ft 591 kts 50°
2026-05-08 21:10 30.34660 -94.23601 41009 ft 592 kts 50°
2026-05-08 21:10 30.39630 -94.15984 41007 ft 593 kts 50°
2026-05-08 21:11 30.44592 -94.08352 41010 ft 593 kts 50°
2026-05-08 21:11 30.49438 -94.00612 41028 ft 594 kts 54°
2026-05-08 21:12 30.53881 -93.92538 41018 ft 596 kts 57°
2026-05-08 21:12 30.58146 -93.84249 41012 ft 595 kts 58°
2026-05-08 21:13 30.62334 -93.76001 41029 ft 595 kts 58°
2026-05-08 21:13 30.66550 -93.67721 41028 ft 597 kts 58°
2026-05-08 21:14 30.70784 -93.59418 41021 ft 596 kts 58°
2026-05-08 21:14 30.74995 -93.51144 41034 ft 595 kts 58°
2026-05-08 21:15 30.79211 -93.42838 41020 ft 599 kts 57°
2026-05-08 21:15 30.83466 -93.34438 41036 ft 603 kts 58°
2026-05-08 21:16 30.87701 -93.26063 41027 ft 603 kts 58°
2026-05-08 21:16 30.91934 -93.17675 41029 ft 600 kts 58°
2026-05-08 21:17 30.96132 -93.09334 41033 ft 596 kts 58°
2026-05-08 21:17 31.00338 -93.00954 41028 ft 598 kts 58°
2026-05-08 21:18 31.04543 -92.92562 41027 ft 598 kts 58°
2026-05-08 21:18 31.08728 -92.84192 41036 ft 597 kts 58°
2026-05-08 21:19 31.12912 -92.75808 41023 ft 598 kts 58°
2026-05-08 21:19 31.17070 -92.67450 41032 ft 596 kts 58°
2026-05-08 21:20 31.21219 -92.59101 41030 ft 595 kts 58°
2026-05-08 21:20 31.25360 -92.50705 41028 ft 596 kts 59°
2026-05-08 21:21 31.28688 -92.43600 41028 ft 599 kts 60°
2026-05-08 21:21 31.32628 -92.34951 41033 ft 603 kts 60°
2026-05-08 21:22 31.36552 -92.26296 41023 ft 602 kts 60°
2026-05-08 21:22 31.40468 -92.17678 41036 ft 601 kts 61°
2026-05-08 21:23 31.44390 -92.09033 41026 ft 602 kts 61°
2026-05-08 21:23 31.48320 -92.00344 41028 ft 601 kts 61°
2026-05-08 21:24 31.52214 -91.91716 41035 ft 602 kts 61°
2026-05-08 21:24 31.56129 -91.83024 41023 ft 602 kts 61°
2026-05-08 21:25 31.60020 -91.74363 41032 ft 600 kts 61°
2026-05-08 21:25 31.63897 -91.65715 41035 ft 599 kts 61°
2026-05-08 21:26 31.67771 -91.57051 41021 ft 594 kts 61°
2026-05-08 21:26 31.71581 -91.48514 41035 ft 594 kts 61°
2026-05-08 21:27 31.75411 -91.39910 41027 ft 596 kts 61°
2026-05-08 21:27 31.79254 -91.31254 41024 ft 598 kts 61°
2026-05-08 21:28 31.83110 -91.22554 41034 ft 600 kts 61°
2026-05-08 21:28 31.86953 -91.13859 41023 ft 603 kts 61°
2026-05-08 21:29 31.90800 -91.05136 41038 ft 603 kts 62°
2026-05-08 21:29 31.94550 -90.96610 41024 ft 603 kts 62°
2026-05-08 21:30 31.98420 -90.87794 41035 ft 602 kts 62°
2026-05-08 21:30 32.02248 -90.79049 41037 ft 602 kts 62°
2026-05-08 21:31 32.06098 -90.70230 41026 ft 604 kts 61°
2026-05-08 21:31 32.09938 -90.61419 41044 ft 604 kts 61°
2026-05-08 21:32 32.13781 -90.52579 41057 ft 604 kts 61°
2026-05-08 21:32 32.17597 -90.43780 41065 ft 603 kts 61°
2026-05-08 21:33 32.21403 -90.34979 41081 ft 604 kts 61°
2026-05-08 21:33 32.25230 -90.26108 41085 ft 602 kts 61°
2026-05-08 21:33 32.27105 -90.21754 41197 ft 598 kts 62°
2026-05-08 21:34 32.29013 -90.17317 41100 ft 604 kts 61°
2026-05-08 21:34 32.32827 -90.08431 41129 ft 604 kts 61°
2026-05-08 21:35 32.36609 -89.99605 41092 ft 604 kts 61°
2026-05-08 21:35 32.40415 -89.90699 41073 ft 605 kts 61°
2026-05-08 21:36 32.44191 -89.81840 41093 ft 605 kts 61°
2026-05-08 21:36 32.47982 -89.72922 41118 ft 605 kts 61°
2026-05-08 21:37 32.51741 -89.64061 41093 ft 605 kts 62°
2026-05-08 21:37 32.55536 -89.55087 41109 ft 605 kts 62°
2026-05-08 21:38 32.59284 -89.46201 41097 ft 606 kts 62°
2026-05-08 21:38 32.62846 -89.37119 41122 ft 605 kts 67°
2026-05-08 21:39 32.65720 -89.27689 41099 ft 606 kts 72°
2026-05-08 21:39 32.68189 -89.18270 41089 ft 608 kts 73°
2026-05-08 21:40 32.70672 -89.08514 41056 ft 609 kts 73°
2026-05-08 21:40 32.73137 -88.98935 41040 ft 607 kts 73°
2026-05-08 21:41 32.76853 -88.84551 41054 ft 607 kts 73°
2026-05-08 21:41 32.79334 -88.74904 41047 ft 614 kts 73°
2026-05-08 21:42 32.81803 -88.65254 41035 ft 612 kts 73°
2026-05-08 21:42 32.84276 -88.55565 41048 ft 610 kts 73°
2026-05-08 21:43 32.86739 -88.45878 41030 ft 613 kts 73°
2026-05-08 21:43 32.89199 -88.36165 41034 ft 611 kts 73°
2026-05-08 21:44 32.91646 -88.26470 41038 ft 612 kts 73°
2026-05-08 21:44 32.94085 -88.16770 41025 ft 612 kts 73°
2026-05-08 21:45 32.96503 -88.07120 41036 ft 611 kts 73°
2026-05-08 21:45 32.98925 -87.97418 41050 ft 611 kts 73°
2026-05-08 21:46 33.01348 -87.87676 41040 ft 612 kts 73°
2026-05-08 21:46 33.03732 -87.78057 41049 ft 611 kts 73°
2026-05-08 21:47 33.06139 -87.68306 41054 ft 611 kts 73°
2026-05-08 21:47 33.08529 -87.58594 41045 ft 612 kts 73°
2026-05-08 21:48 33.10917 -87.48832 41057 ft 611 kts 75°
2026-05-08 21:48 33.12773 -87.39045 41476 ft 583 kts 79°
2026-05-08 21:49 33.13491 -87.34339 41227 ft 578 kts 82°
2026-05-08 21:49 33.14167 -87.29577 41149 ft 584 kts 82°
2026-05-08 21:49 33.14841 -87.24734 41005 ft 592 kts 82°
2026-05-08 21:49 33.15527 -87.19860 41077 ft 596 kts 82°
2026-05-08 21:50 33.16930 -87.10089 41037 ft 607 kts 82°
2026-05-08 21:50 33.18378 -87.00106 41051 ft 612 kts 82°
2026-05-08 21:51 33.19818 -86.90135 41076 ft 610 kts 82°
2026-05-08 21:51 33.21252 -86.80117 41053 ft 610 kts 82°
2026-05-08 21:52 33.22667 -86.70160 41040 ft 611 kts 82°
2026-05-08 21:52 33.24083 -86.60141 41031 ft 610 kts 82°
2026-05-08 21:53 33.25491 -86.50092 41053 ft 612 kts 82°
2026-05-08 21:53 33.26884 -86.40134 41044 ft 612 kts 82°
2026-05-08 21:54 33.28275 -86.30117 41058 ft 611 kts 82°
2026-05-08 21:54 33.29661 -86.20073 41049 ft 611 kts 82°
2026-05-08 21:55 33.31036 -86.10033 41050 ft 612 kts 82°
2026-05-08 21:56 33.33081 -85.95003 41052 ft 612 kts 82°
2026-05-08 21:56 33.34443 -85.84907 41047 ft 612 kts 82°
2026-05-08 21:57 33.35787 -85.74890 41058 ft 611 kts 82°
2026-05-08 21:57 33.37116 -85.64914 41049 ft 611 kts 82°
2026-05-08 21:58 33.38450 -85.54837 41050 ft 611 kts 82°
2026-05-08 21:58 33.39772 -85.44793 41057 ft 612 kts 82°
2026-05-08 21:59 33.41086 -85.34744 41045 ft 611 kts 82°
2026-05-08 21:59 33.42388 -85.24722 41054 ft 610 kts 82°
2026-05-08 22:00 33.43684 -85.14674 41055 ft 611 kts 82°
2026-05-08 22:00 33.44974 -85.04613 41045 ft 612 kts 83°
2026-05-08 22:01 33.46257 -84.94539 41055 ft 610 kts 83°
2026-05-08 22:01 33.47527 -84.84497 41043 ft 611 kts 83°
2026-05-08 22:02 33.48359 -84.77883 41040 ft 611 kts 83°
2026-05-08 22:02 33.49619 -84.67749 41054 ft 611 kts 81°
2026-05-08 22:03 33.50873 -84.57662 41035 ft 611 kts 81°
2026-05-08 22:03 33.51912 -84.49299 41040 ft 611 kts 81°
2026-05-08 22:03 33.52731 -84.42649 40955 ft 599 kts 81°
2026-05-08 22:04 33.53132 -84.39380 40463 ft 597 kts 81°
2026-05-08 22:04 33.53740 -84.34390 39768 ft 595 kts 81°
2026-05-08 22:04 33.54327 -84.29561 39110 ft 592 kts 81°
2026-05-08 22:04 33.54926 -84.24624 38563 ft 586 kts 81°
2026-05-08 22:05 33.55501 -84.19874 38073 ft 580 kts 81°
2026-05-08 22:05 33.56073 -84.15123 37573 ft 574 kts 81°
2026-05-08 22:05 33.56640 -84.10407 37074 ft 568 kts 82°
2026-05-08 22:05 33.57196 -84.05756 36556 ft 563 kts 82°
2026-05-08 22:06 33.57752 -84.01098 36021 ft 558 kts 82°
2026-05-08 22:06 33.58296 -83.96523 35513 ft 553 kts 82°
2026-05-08 22:06 33.58968 -83.92070 35252 ft 542 kts 78°
2026-05-08 22:06 33.59783 -83.87708 34991 ft 533 kts 76°
2026-05-08 22:07 33.60686 -83.83408 34733 ft 539 kts 74°
2026-05-08 22:07 33.61696 -83.79028 34667 ft 551 kts 72°
2026-05-08 22:07 33.62796 -83.74495 34677 ft 560 kts 72°
2026-05-08 22:08 33.65069 -83.65476 34661 ft 578 kts 70°
2026-05-08 22:08 33.68190 -83.56442 34671 ft 592 kts 62°
2026-05-08 22:09 33.71972 -83.47535 34702 ft 603 kts 57°
2026-05-08 22:09 33.76183 -83.38770 34703 ft 603 kts 55°
2026-05-08 22:10 33.80487 -83.30017 34673 ft 612 kts 54°
2026-05-08 22:10 33.84909 -83.21359 34669 ft 608 kts 52°
2026-05-08 22:11 33.89487 -83.12831 34661 ft 607 kts 51°
2026-05-08 22:11 33.94048 -83.04468 34654 ft 608 kts 51°
2026-05-08 22:12 33.98690 -82.95932 34645 ft 606 kts 51°
2026-05-08 22:12 34.03121 -82.87746 34640 ft 607 kts 51°
2026-05-08 22:13 34.07738 -82.79192 34616 ft 608 kts 51°
2026-05-08 22:13 34.12345 -82.70629 34456 ft 607 kts 51°
2026-05-08 22:14 34.16911 -82.62113 34301 ft 595 kts 51°
2026-05-08 22:14 34.19127 -82.57964 34222 ft 576 kts 51°
2026-05-08 22:14 34.21247 -82.53986 34140 ft 557 kts 50°
2026-05-08 22:14 34.23327 -82.50083 34056 ft 539 kts 50°
2026-05-08 22:15 34.25341 -82.46312 33974 ft 528 kts 50°
2026-05-08 22:15 34.27317 -82.42623 33652 ft 523 kts 50°
2026-05-08 22:15 34.29297 -82.38931 32912 ft 527 kts 50°
2026-05-08 22:16 34.33257 -82.31515 32741 ft 535 kts 50°
2026-05-08 22:16 34.37372 -82.23792 32642 ft 545 kts 51°
2026-05-08 22:16 34.39397 -82.19962 32367 ft 547 kts 51°
2026-05-08 22:17 34.41425 -82.16111 32000 ft 542 kts 50°
2026-05-08 22:17 34.43448 -82.12269 31429 ft 538 kts 50°
2026-05-08 22:17 34.45438 -82.08491 30907 ft 531 kts 50°
2026-05-08 22:17 34.47444 -82.04689 30257 ft 528 kts 50°
2026-05-08 22:18 34.49401 -82.00983 29647 ft 524 kts 50°
2026-05-08 22:18 34.51368 -81.97255 29025 ft 520 kts 50°
2026-05-08 22:18 34.53324 -81.93536 28353 ft 517 kts 50°
2026-05-08 22:18 34.55223 -81.89930 27758 ft 513 kts 51°
2026-05-08 22:19 34.57136 -81.86289 27074 ft 509 kts 51°
2026-05-08 22:19 34.59031 -81.82675 26483 ft 504 kts 51°
2026-05-08 22:19 34.60900 -81.79105 25828 ft 500 kts 52°
2026-05-08 22:19 34.62756 -81.75557 25214 ft 495 kts 52°
2026-05-08 22:20 34.64599 -81.72030 24597 ft 490 kts 52°
2026-05-08 22:20 34.66410 -81.68565 23982 ft 485 kts 52°
2026-05-08 22:20 34.68215 -81.65105 23372 ft 480 kts 52°
2026-05-08 22:20 34.69973 -81.61729 22780 ft 475 kts 52°
2026-05-08 22:21 34.71754 -81.58307 22180 ft 469 kts 52°
2026-05-08 22:21 34.73543 -81.55032 21578 ft 461 kts 49°
2026-05-08 22:21 34.75473 -81.52004 21017 ft 453 kts 45°
2026-05-08 22:21 34.77471 -81.49079 20440 ft 447 kts 43°
2026-05-08 22:22 34.79503 -81.46273 19902 ft 440 kts 42°
2026-05-08 22:22 34.81563 -81.43544 19366 ft 433 kts 41°
2026-05-08 22:22 34.83607 -81.40898 18839 ft 427 kts 40°
2026-05-08 22:22 34.85641 -81.38288 18319 ft 421 kts 40°
2026-05-08 22:23 34.87649 -81.35716 17806 ft 416 kts 40°
2026-05-08 22:23 34.89641 -81.33164 17298 ft 410 kts 40°
2026-05-08 22:23 34.91591 -81.30661 16799 ft 405 kts 41°
2026-05-08 22:23 34.93523 -81.28178 16325 ft 399 kts 41°
2026-05-08 22:24 34.95403 -81.25757 15907 ft 393 kts 41°
2026-05-08 22:24 34.97293 -81.23324 15262 ft 392 kts 41°
2026-05-08 22:24 34.99172 -81.20908 14557 ft 393 kts 41°
2026-05-08 22:24 35.01051 -81.18491 13809 ft 393 kts 41°
2026-05-08 22:25 35.02914 -81.16091 13062 ft 392 kts 42°
2026-05-08 22:25 35.04777 -81.13682 12334 ft 390 kts 42°
2026-05-08 22:25 35.06650 -81.11272 11577 ft 387 kts 41°
2026-05-08 22:25 35.08691 -81.09204 10754 ft 377 kts 29°
2026-05-08 22:26 35.11045 -81.08059 10351 ft 354 kts 11°
2026-05-08 22:26 35.13383 -81.07400 10182 ft 335 kts
2026-05-08 22:26 35.15565 -81.06581 10093 ft 319 kts 12°
2026-05-08 22:26 35.17664 -81.06178 9835 ft 299 kts 357°
2026-05-08 22:27 35.19712 -81.06379 9391 ft 295 kts 349°
2026-05-08 22:27 35.21771 -81.06670 8760 ft 300 kts 348°
2026-05-08 22:27 35.23865 -81.06903 8145 ft 305 kts 352°
2026-05-08 22:27 35.26003 -81.07032 7549 ft 307 kts 354°
2026-05-08 22:28 35.28137 -81.07186 6957 ft 308 kts 353°
2026-05-08 22:28 35.30285 -81.07367 6355 ft 309 kts 354°
2026-05-08 22:28 35.32432 -81.07577 5760 ft 309 kts 354°
2026-05-08 22:28 35.34542 -81.07811 5219 ft 308 kts 353°
2026-05-08 22:29 35.36642 -81.08070 5100 ft 288 kts 353°
2026-05-08 22:29 35.38533 -81.08301 4979 ft 265 kts 355°
2026-05-08 22:29 35.40314 -81.08041 4791 ft 249 kts 14°
2026-05-08 22:29 35.41748 -81.06981 4676 ft 242 kts 37°
2026-05-08 22:30 35.42710 -81.05315 4489 ft 239 kts 61°
2026-05-08 22:30 35.43056 -81.03330 4381 ft 233 kts 82°
2026-05-08 22:30 35.43196 -81.01402 4231 ft 231 kts 86°
2026-05-08 22:30 35.43138 -80.99453 4069 ft 224 kts 93°
2026-05-08 22:31 35.43019 -80.97589 3998 ft 215 kts 99°
2026-05-08 22:31 35.42336 -80.96014 3930 ft 207 kts 127°
2026-05-08 22:31 35.41144 -80.95001 3994 ft 211 kts 152°
2026-05-08 22:31 35.39714 -80.94634 4050 ft 209 kts 172°
2026-05-08 22:32 35.38270 -80.94624 4048 ft 207 kts 180°
2026-05-08 22:32 35.36874 -80.94680 3896 ft 200 kts 182°
2026-05-08 22:32 35.35527 -80.94692 3601 ft 186 kts 180°
2026-05-08 22:32 35.34283 -80.94650 3324 ft 172 kts 179°
2026-05-08 22:33 35.33111 -80.94569 3045 ft 163 kts 177°
2026-05-08 22:33 35.31974 -80.94450 2810 ft 161 kts 175°
2026-05-08 22:33 35.30879 -80.94329 2581 ft 159 kts 175°
2026-05-08 22:33 35.29774 -80.94223 2365 ft 159 kts 176°
2026-05-08 22:34 35.28679 -80.94142 2122 ft 158 kts 176°
2026-05-08 22:34 35.27589 -80.94066 1883 ft 153 kts 176°
2026-05-08 22:34 35.26528 -80.93978 1658 ft 150 kts 176°
2026-05-08 22:34 35.25506 -80.93878 1445 ft 146 kts 175°
2026-05-08 22:35 35.24516 -80.93785 1236 ft 143 kts 175°
2026-05-08 22:35 35.23493 -80.93699 1028 ft 149 kts 176°
2026-05-08 22:35 35.22454 -80.93615 819 ft 153 kts 176°
2026-05-08 22:35 35.21446 -80.93526 762 ft 121 kts 176°
2026-05-08 22:36 35.20795 -80.93474 761 ft 67 kts 176°
2026-05-08 22:36 35.20511 -80.93452 761 ft 21 kts 176°
2026-05-08 22:36 35.20433 -80.93460 761 ft 5 kts 212°
2026-05-08 22:36 35.20414 -80.93492 761 ft 3 kts 247°
2026-05-08 22:37 35.20413 -80.93529 761 ft 8 kts 285°
2026-05-08 22:37 35.20476 -80.93577 761 ft 15 kts 350°
2026-05-08 22:37 35.20606 -80.93586 761 ft 22 kts 358°
2026-05-08 22:37 35.20778 -80.93596 761 ft 27 kts 357°
2026-05-08 22:38 35.20980 -80.93608 761 ft 29 kts 357°
2026-05-08 22:38 35.21173 -80.93623 761 ft 26 kts 356°
2026-05-08 22:38 35.21359 -80.93640 761 ft 23 kts 354°
2026-05-08 22:38 35.21488 -80.93734 761 ft 23 kts 319°
2026-05-08 22:39 35.21625 -80.93878 761 ft 28 kts 319°
2026-05-08 22:39 35.21767 -80.94026 761 ft 20 kts 320°
2026-05-08 22:39 35.21817 -80.94105 761 ft 10 kts 283°
2026-05-08 22:39 35.21820 -80.94129 761 ft 0 kts 279°